Ellensburg, WA
on Saturday, December 15, 2012

Saturday
Previous Day Next Day
Daily Summary
 ActualAverage (KYKM)Record (KYKM)
Temperature
Mean Temperature °F 28°F  
Max Temperature 30°F 35°F 62°F (1959)
Min Temperature 18°F 21°F 2°F (2008)
Degree Days
Heating Degree Days 38 37  
Month to date heating degree days 532  
Since 1 July heating degree days 2065  
Cooling Degree Days 0 0  
Month to date cooling degree days 0  
Year to date cooling degree days 472  
Moisture
Dew Point 23°F   
Average Humidity 84    
Maximum Humidity 93    
Minimum Humidity 80    
Precipitation
Precipitation 0.10 in 0.05 in 0.55 in (1981)
Month to date precipitation 0.72  
Year to date precipitation 7.44  
Snow
Snow 0.00 in 0.40 in 6.70 in (1981)
Month to date snowfall 4.4  
Year to date snowfall 16.6  
Since 1 July snowfall 8.0  
Snow Depth in   
Wind
Wind Speed 2 mph   
Max Wind Speed 7 mph   
Max Gust Speed mph   
Visibility 4 miles   
Events Fog , Snow   

Key: T is trace of precipitation, MM is missing value
Source: NWS Daily Summary
Time(PST)TemperatureDew PointHumidity Pressure Visibility Wind DirectionWind SpeedGust SpeedPrecipitationEvents Conditions
12:53 AM 23.0°F 19.9°F 88% 29.96 in 0.2 miles ENE 3.5 mph - N/A Fog Light Freezing Fog
1:46 AM 23.0°F 19.4°F 86% 29.90 in 1.2 miles ENE 3.5 mph - N/A   Overcast
1:53 AM 23.0°F 19.0°F 85% 29.96 in 1.0 miles Calm Calm - N/A   Mist
2:10 AM 23.0°F 19.4°F 86% 29.90 in 1.8 miles NE 3.5 mph - N/A   Overcast
2:35 AM 24.8°F 19.4°F 80% 29.89 in 2.0 miles East 3.5 mph - N/A   Overcast
2:51 AM 24.8°F 19.4°F 80% 29.88 in 3.0 miles Calm Calm - N/A   Overcast
2:53 AM 24.1°F 19.9°F 84% 29.94 in 3.0 miles Calm Calm - N/A   Overcast
3:03 AM 24.8°F 19.4°F 80% 29.88 in 1.8 miles Calm Calm - N/A   Overcast
3:27 AM 23.0°F 19.4°F 86% 29.88 in 1.0 miles Calm Calm - N/A   Overcast
3:43 AM 24.8°F 19.4°F 80% 29.87 in 0.5 miles Calm Calm - N/A Fog Light Freezing Fog
3:53 AM 24.1°F 19.9°F 84% 29.93 in 0.5 miles West 4.6 mph - N/A Fog Light Freezing Fog
4:15 AM 23.0°F 19.4°F 86% 29.87 in 1.0 miles WNW 3.5 mph - N/A   Mist
4:25 AM 23.0°F 19.4°F 86% 29.86 in 1.8 miles Calm Calm - N/A   Overcast
4:37 AM 23.0°F 19.4°F 86% 29.86 in 2.5 miles Calm Calm - N/A   Overcast
4:46 AM 24.8°F 19.4°F 80% 29.86 in 5.0 miles Calm Calm - N/A   Haze
4:53 AM 24.1°F 19.9°F 84% 29.92 in 7.0 miles Calm Calm - N/A   Overcast
5:13 AM 24.8°F 19.4°F 80% 29.86 in 10.0 miles Calm Calm - N/A   Overcast
5:20 AM 24.8°F 19.4°F 80% 29.85 in 10.0 miles Calm Calm - N/A   Overcast
5:31 AM 24.8°F 19.4°F 80% 29.85 in 10.0 miles Calm Calm - N/A   Overcast
5:42 AM 24.8°F 19.4°F 80% 29.85 in 10.0 miles NW 3.5 mph - N/A   Overcast
5:53 AM 25.0°F 19.9°F 81% 29.90 in 10.0 miles Calm Calm - N/A   Overcast
6:16 AM 24.8°F 19.4°F 80% 29.85 in 10.0 miles Calm Calm - N/A   Overcast
6:53 AM 26.1°F 21.0°F 81% 29.89 in 10.0 miles North 3.5 mph - N/A   Overcast
7:53 AM 26.1°F 21.0°F 81% 29.88 in 10.0 miles SSE 3.5 mph - N/A   Overcast
8:33 AM 26.6°F 21.2°F 80% 29.82 in 5.0 miles Calm Calm - N/A   Overcast
8:53 AM 26.1°F 21.9°F 84% 29.88 in 4.0 miles Calm Calm - N/A   Overcast
9:12 AM 26.6°F 21.2°F 80% 29.82 in 6.0 miles Calm Calm - N/A   Haze
9:53 AM 28.0°F 24.1°F 85% 29.88 in 3.0 miles Calm Calm - N/A   Overcast
10:50 AM 28.4°F 24.8°F 86% 29.79 in 4.0 miles Calm Calm - N/A   Overcast
10:53 AM 28.9°F 25.0°F 85% 29.85 in 4.0 miles East 3.5 mph - N/A   Overcast
11:14 AM 30.2°F 24.8°F 80% 29.78 in 2.0 miles ESE 3.5 mph - 0.00 in Snow Light Snow
11:21 AM 30.2°F 24.8°F 80% 29.78 in 1.5 miles ESE 4.6 mph - 0.00 in Snow Light Snow
11:29 AM 30.2°F 26.6°F 86% 29.77 in 0.8 miles ESE 3.5 mph - 0.01 in Snow Light Snow
11:41 AM 30.2°F 26.6°F 86% 29.76 in 0.5 miles ESE 4.6 mph - 0.01 in Fog , Snow Snow
11:53 AM 30.0°F 26.1°F 85% 29.81 in 0.5 miles Calm Calm - 0.02 in Fog , Snow Snow
12:03 PM 30.2°F 26.6°F 86% 29.75 in 0.5 miles Calm Calm - 0.01 in Fog , Snow Snow
12:24 PM 30.2°F 26.6°F 86% 29.73 in 1.0 miles Calm Calm - 0.02 in Snow Light Snow
12:33 PM 30.2°F 26.6°F 86% 29.73 in 1.8 miles SSE 3.5 mph - 0.02 in Snow Light Snow
12:40 PM 30.2°F 26.6°F 86% 29.72 in 3.0 miles Calm Calm - 0.02 in Snow Light Snow
12:53 PM 30.0°F 26.1°F 85% 29.77 in 2.5 miles Calm Calm - 0.02 in Snow Light Snow
1:05 PM 30.2°F 26.6°F 86% 29.71 in 2.5 miles Calm Calm - 0.00 in Snow Light Snow
1:13 PM 30.2°F 26.6°F 86% 29.70 in 3.0 miles Calm Calm - 0.00 in Snow Light Snow
1:25 PM 30.2°F 26.6°F 86% 29.69 in 1.8 miles Calm Calm - 0.00 in Snow Light Snow
1:27 PM 30.2°F 26.6°F 86% 29.69 in 1.5 miles Calm Calm - 0.00 in Snow Light Snow
1:38 PM 30.2°F 26.6°F 86% 29.68 in 1.0 miles Calm Calm - 0.01 in Snow Light Snow
1:53 PM 30.9°F 26.1°F 82% 29.73 in 1.0 miles Calm Calm - 0.01 in Snow Light Snow
2:16 PM 30.2°F 26.6°F 86% 29.67 in 0.8 miles ESE 3.5 mph - 0.01 in Snow Light Snow
2:26 PM 30.2°F 26.6°F 86% 29.66 in 0.5 miles ESE 3.5 mph - 0.02 in Fog , Snow Snow
2:42 PM 30.2°F 26.6°F 86% 29.66 in 1.0 miles ESE 3.5 mph - 0.03 in Snow Light Snow
2:46 PM 30.2°F 26.6°F 86% 29.65 in 1.8 miles East 4.6 mph - 0.03 in Snow Light Snow
2:53 PM 30.9°F 27.0°F 85% 29.70 in 2.5 miles ESE 5.8 mph - 0.03 in Snow Light Snow
3:00 PM 30.2°F 26.6°F 86% 29.65 in 3.0 miles ESE 5.8 mph - 0.01 in Snow Light Snow
3:53 PM 30.9°F 27.0°F 85% 29.68 in 5.0 miles ESE 5.8 mph - 0.01 in Snow Light Snow
4:14 PM 30.2°F 26.6°F 86% 29.62 in 3.0 miles ESE 5.8 mph - 0.00 in Snow Light Snow
4:42 PM 30.2°F 26.6°F 86% 29.61 in 5.0 miles ESE 4.6 mph - 0.00 in Snow Light Snow
4:53 PM 30.9°F 26.1°F 82% 29.65 in 3.0 miles East 4.6 mph - 0.00 in Snow Light Snow
5:00 PM 30.2°F 26.6°F 86% 29.60 in 2.5 miles East 4.6 mph - 0.00 in Snow Light Snow
5:24 PM 30.2°F 26.6°F 86% 29.59 in 4.0 miles East 6.9 mph - 0.00 in Snow Light Snow
5:53 PM 30.9°F 26.1°F 82% 29.64 in 7.0 miles ENE 5.8 mph - 0.00 in Snow Light Snow
6:09 PM 30.2°F 26.6°F 86% 29.58 in 10.0 miles ENE 5.8 mph - N/A   Overcast
6:53 PM 30.9°F 27.0°F 85% 29.63 in 10.0 miles ENE 4.6 mph - N/A   Overcast
7:53 PM 30.9°F 26.1°F 82% 29.63 in 10.0 miles Calm Calm - N/A   Overcast
8:18 PM 30.2°F 26.6°F 86% 29.58 in 7.0 miles Calm Calm - 0.01 in   Overcast
8:46 PM 30.2°F 26.6°F 86% 29.59 in 6.0 miles West 3.5 mph - 0.01 in   Overcast
8:53 PM 30.0°F 26.1°F 85% 29.64 in 7.0 miles West 3.5 mph - 0.01 in   Overcast
9:53 PM 28.9°F 24.1°F 82% 29.65 in 7.0 miles NW 5.8 mph - 0.00 in Snow Light Snow
10:02 PM 28.4°F 24.8°F 86% 29.61 in 7.0 miles NW 5.8 mph - 0.00 in Snow Light Snow
10:20 PM 26.6°F 21.2°F 80% 29.61 in 9.0 miles NNW 4.6 mph - 0.00 in   Mostly Cloudy
10:27 PM 26.6°F 21.2°F 80% 29.61 in 10.0 miles NW 4.6 mph - 0.00 in   Scattered Clouds
10:53 PM 24.1°F 19.0°F 81% 29.68 in 9.0 miles WSW 3.5 mph - 0.00 in   Mostly Cloudy
10:58 PM 24.8°F 21.2°F 86% 29.62 in 1.5 miles Calm Calm - N/A   Mostly Cloudy
11:00 PM 24.8°F 21.2°F 86% 29.62 in 1.0 miles Calm Calm - N/A   Mostly Cloudy
11:07 PM 23.0°F 21.2°F 93% 29.62 in 0.2 miles Calm Calm - N/A Fog Light Freezing Fog
11:53 PM 18.0°F 12.9°F 81% 29.70 in 1.8 miles Calm Calm - N/A   Haze
Moon Phase
Dec. 15 Dec. 20 Dec. 28 Jan. 04 Jan. 11
Sunrise:07:41 AM (PST) Moon Rise:09:30 AM (PST)12/15
Sunset:04:13 PM (PST) Moon Set:07:32 PM (PST)12/15

Copyright © 2014 The Weather Underground, Inc.